Location: Maiden
(35.5760°N, 81.2120°W)
Time: 03:23:49
(UTC-04:00)

Cosmos 1959 Rocket - Pass Details

Date: 02 August 2020
Orbit: 948 x 996 km, 82.9° (Epoch: 11 August)

Event Time Altitude Azimuth Distance (km) Brightness Sun altitude
Rises 21:32:18 0° 180° (S) 3,653 7.2 -12.6°
Reaches altitude 10° 21:34:47 10° 178° (S) 2,716 6.5 -13.0°
Maximum altitude 21:41:00 76° 94° (E) 1,015 4.5 -14.0°
Drops below altitude 10° 21:47:19 10° 10° (N) 2,760 7.2 -15.1°
Sets 21:49:52 0° 9° (N) 3,716 7.9 -15.5°
